Weather History for KMBS - September, 2012

Change the Weather History Date:

Sunday, September 30, 2012

  Actual Average Record
Temperature  
Mean Temperature 54 °F 56 °F  
Max Temperature 62 °F 66 °F 86 °F (2002)
Min Temperature 45 °F 45 °F 34 °F (2003)
Degree Days  
Heating Degree Days 11    
Month to date heating degree days  
Since 1 July heating degree days  
Cooling Degree Days 0    
Month to date cooling degree days  
Year to date cooling degree days  
Growing Degree Days 4 (Base 50)    
Moisture  
Dew Point 46 °F    
Average Humidity 75    
Maximum Humidity 93    
Minimum Humidity 56    
Precipitation  
Precipitation 0.00 in 0.11 in 0.33 in (1998)
Month to date precipitation 3.83  
Year to date precipitation 24.35  
Snow  
Snow 0.00 in - - ()
Month to date snowfall  
Since 1 July snowfall  
Since 1 September snowfall  
Snow Depth -    
Sea Level Pressure  
Sea Level Pressure 29.99 in    
Wind  
Wind Speed 8 mph (NNE)    
Max Wind Speed 17 mph    
Max Gust Speed 21 mph    
Visibility 10 miles    
Events Rain    
T = Trace of Precipitation, MM = Missing Value Source: NWS Daily Summary

Daily Weather History Graph

Daily Weather History Graph

Search for Another Location

Airport or City:

Trip Planner

Search our weather history database for the weather conditions in past years. The results will help you decide how hot, cold, wet, or windy it might be!

Date:

Astronomy

Sep. 30, 2012 Rise Set
Actual Time 7:33 AM EDT 7:18 PM EDT
Civil Twilight 7:04 AM EDT 7:46 PM EDT
Nautical Twilight 6:31 AM EDT 8:19 PM EDT
Astronomical Twilight 5:57 AM EDT 8:53 PM EDT
Moon 7:18 PM EDT (9/30) 8:05 AM EDT (9/30)
Length of Visible Light 12h 42m
Length of Day
11h 45m
Full, 100% of the Moon is Illuminated
Sep 30
Full
Oct 8
Last Quarter
Oct 15
New
Oct 21
First Quarter
Oct 29
Full

Hourly Weather History & Observations

Time (EDT) Temp. Dew Point Humidity Pressure Visibility Wind Dir Wind Speed Gust Speed Precip Events Conditions
12:53 AM 48.9 °F 46.0 °F 90% 30.00 in 10.0 mi NNW 5.8 mph - N/A   Clear
1:53 AM 48.9 °F 46.0 °F 90% 29.99 in 10.0 mi North 6.9 mph - N/A   Clear
2:53 AM 48.0 °F 45.0 °F 89% 29.98 in 10.0 mi North 6.9 mph - N/A   Clear
3:53 AM 48.0 °F 45.0 °F 89% 29.97 in 10.0 mi North 5.8 mph - N/A   Clear
4:53 AM 51.1 °F 48.0 °F 89% 29.98 in 10.0 mi NE 8.1 mph - 0.00 in Rain Light Rain
5:53 AM 52.0 °F 48.0 °F 86% 29.99 in 10.0 mi NNE 4.6 mph - 0.00 in   Overcast
6:53 AM 50.0 °F 46.9 °F 89% 29.99 in 10.0 mi North 5.8 mph - N/A   Mostly Cloudy
7:53 AM 46.9 °F 45.0 °F 93% 29.99 in 10.0 mi North 6.9 mph - N/A   Clear
8:53 AM 51.1 °F 46.9 °F 86% 30.00 in 10.0 mi North 9.2 mph - N/A   Scattered Clouds
9:53 AM 53.1 °F 46.9 °F 80% 30.01 in 10.0 mi North 10.4 mph - N/A   Scattered Clouds
10:53 AM 57.9 °F 46.9 °F 67% 30.02 in 10.0 mi NNE 16.1 mph - N/A   Partly Cloudy
11:53 AM 60.1 °F 46.0 °F 60% 30.01 in 10.0 mi NE 16.1 mph - N/A   Mostly Cloudy
12:32 PM 60.8 °F 46.4 °F 59% 30.01 in 10.0 mi NE 15.0 mph - N/A   Mostly Cloudy
12:44 PM 60.8 °F 46.4 °F 59% 30.01 in 10.0 mi NNE 16.1 mph 20.7 mph N/A   Overcast
12:53 PM 60.1 °F 46.9 °F 62% 30.01 in 10.0 mi NNE 17.3 mph - N/A   Mostly Cloudy
1:00 PM 60.8 °F 46.4 °F 59% 30.01 in 10.0 mi NE 16.1 mph - N/A   Overcast
1:53 PM 60.1 °F 48.0 °F 64% 30.01 in 10.0 mi NNE 12.7 mph - N/A   Mostly Cloudy
2:53 PM 61.0 °F 46.9 °F 60% 29.99 in 10.0 mi NE 16.1 mph - N/A   Mostly Cloudy
3:53 PM 60.8 °F 46.4 °F 59% 29.98 in 10.0 mi ENE 10.4 mph - N/A   Overcast
4:53 PM 62.1 °F 46.9 °F 58% 29.97 in 10.0 mi NE 11.5 mph - N/A   Clear
5:53 PM 61.0 °F 45.0 °F 56% 29.98 in 10.0 mi NE 10.4 mph - N/A   Scattered Clouds
6:53 PM 57.9 °F 46.0 °F 65% 29.98 in 10.0 mi NE 3.5 mph - N/A   Overcast
7:53 PM 52.0 °F 46.0 °F 80% 29.99 in 10.0 mi East 3.5 mph - N/A   Clear
8:53 PM 50.0 °F 45.0 °F 83% 30.00 in 10.0 mi Calm Calm - N/A   Clear
9:53 PM 50.0 °F 45.0 °F 83% 29.99 in 10.0 mi Calm Calm - N/A   Clear
10:53 PM 48.0 °F 44.1 °F 86% 29.99 in 10.0 mi Calm Calm - N/A   Clear
11:53 PM 45.0 °F 42.1 °F 90% 29.98 in 10.0 mi Calm Calm - N/A   Clear